Jamestown, NY

1:28 PM EDT on May 23, 2018 (GMT -0400)
Chautauqua County-Jamestown

Weather History for KJHW - October, 2011

Change the Weather History Date:

Sunday, October 23, 2011

  Actual Average Record
Temperature  
Mean Temperature 44 °F -  
Max Temperature 55 °F 54 °F 80 °F (1979)
Min Temperature 32 °F 33 °F 21 °F (1974)
Degree Days  
Heating Degree Days 22    
Moisture  
Dew Point 34 °F    
Average Humidity 72    
Maximum Humidity 100    
Minimum Humidity 44    
Precipitation  
Precipitation 0.00 in - - ()
Sea Level Pressure  
Sea Level Pressure 30.06 in    
Wind  
Wind Speed 5 mph (SSW)    
Max Wind Speed 10 mph    
Max Gust Speed -    
Visibility 8 miles    
Events      
Averages and records for this station are not official NWS values.
T = Trace of Precipitation, MM = Missing Value Source: NWS Daily Summary

Daily Weather History Graph

Daily Weather History Graph

Search for Another Location

Airport or City:

Astronomy

Oct. 23, 2011 Rise Set
Actual Time 7:38 AM EDT 6:23 PM EDT
Civil Twilight 7:10 AM EDT 6:51 PM EDT
Nautical Twilight 6:37 AM EDT 7:24 PM EDT
Astronomical Twilight 6:05 AM EDT 7:56 PM EDT
Moon 3:39 AM EDT 4:16 PM EDT
Length of Visible Light 11h 41m
Length of Day
10h 44m
Waning Crescent, 14% of the Moon is Illuminated
Oct 23
Waning Crescent
Oct 26
New
Nov 2
First Quarter
Nov 10
Full
Nov 18
Last Quarter

Hourly Weather History & Observations

Time (EDT) Temp. Windchill Dew Point Humidity Pressure Visibility Wind Dir Wind Speed Gust Speed Precip Events Conditions
12:15 AM 37.4 °F 33.8 °F 35.6 °F 93% 30.08 in 10.0 mi South 4.6 mph - N/A   Clear
12:35 AM 37.4 °F 33.8 °F 35.6 °F 93% 30.07 in 10.0 mi South 4.6 mph - N/A   Clear
12:55 AM 37.4 °F 34.9 °F 33.8 °F 87% 30.07 in 10.0 mi South 3.5 mph - N/A   Clear
1:15 AM 37.4 °F 33.8 °F 33.8 °F 87% 30.07 in 8.0 mi South 4.6 mph - N/A   Clear
1:35 AM 37.4 °F 34.9 °F 33.8 °F 87% 30.07 in 10.0 mi South 3.5 mph - N/A   Clear
1:55 AM 37.4 °F 33.8 °F 33.8 °F 87% 30.07 in 10.0 mi South 4.6 mph - N/A   Clear
2:15 AM 37.4 °F 33.8 °F 33.8 °F 87% 30.07 in 10.0 mi South 4.6 mph - N/A   Clear
2:35 AM 37.4 °F 34.9 °F 33.8 °F 87% 30.07 in 10.0 mi South 3.5 mph - N/A   Clear
2:55 AM 37.4 °F 34.9 °F 33.8 °F 87% 30.07 in 10.0 mi South 3.5 mph - N/A   Clear
3:35 AM 35.6 °F 31.7 °F 33.8 °F 93% 30.06 in 5.0 mi South 4.6 mph - N/A   Clear
3:55 AM 35.6 °F 31.7 °F 33.8 °F 93% 30.06 in 4.0 mi South 4.6 mph - N/A   Clear
4:15 AM 33.8 °F 29.6 °F 32.0 °F 93% 30.06 in 3.0 mi South 4.6 mph - N/A   Clear
4:35 AM 33.8 °F 29.6 °F 32.0 °F 93% 30.05 in 2.0 mi South 4.6 mph - N/A   Clear
4:55 AM 33.8 °F 29.6 °F 32.0 °F 93% 30.05 in 2.0 mi South 4.6 mph - N/A   Clear
5:15 AM 33.8 °F 29.6 °F 32.0 °F 93% 30.05 in 1.2 mi South 4.6 mph - N/A   Clear
5:35 AM 33.8 °F 28.6 °F 32.0 °F 93% 30.05 in 2.5 mi South 5.8 mph - N/A   Clear
6:35 AM 33.8 °F 29.6 °F 30.2 °F 87% 30.07 in 3.0 mi South 4.6 mph - N/A   Clear
6:55 AM 33.8 °F 29.6 °F 30.2 °F 87% 30.07 in 5.0 mi SSW 4.6 mph - N/A   Clear
7:15 AM 32.0 °F 26.4 °F 30.2 °F 93% 30.08 in 3.0 mi South 5.8 mph - N/A   Clear
7:35 AM 32.0 °F 27.5 °F 30.2 °F 93% 30.08 in 0.5 mi South 4.6 mph - N/A   Unknown
7:55 AM 33.8 °F 29.6 °F 30.2 °F 87% 30.08 in 1.5 mi SSW 4.6 mph - N/A   Clear
8:15 AM 33.8 °F 28.6 °F 32.0 °F 93% 30.09 in 8.0 mi South 5.8 mph - N/A   Clear
8:35 AM 33.8 °F 28.6 °F 33.8 °F 100% 30.09 in 5.0 mi South 5.8 mph - N/A   Clear
8:55 AM 35.6 °F 30.7 °F 33.8 °F 93% 30.10 in 7.0 mi South 5.8 mph - N/A   Clear
9:15 AM 37.4 °F 33.8 °F 35.6 °F 93% 30.09 in 10.0 mi South 4.6 mph - N/A   Clear
9:35 AM 39.2 °F 35.9 °F 35.6 °F 87% 30.09 in 10.0 mi South 4.6 mph - N/A   Clear
9:55 AM 41.0 °F 37.1 °F 35.6 °F 81% 30.10 in 10.0 mi South 5.8 mph - N/A   Clear
10:15 AM 42.8 °F 39.3 °F 37.4 °F 81% 30.09 in 10.0 mi South 5.8 mph - N/A   Clear
10:55 AM 44.6 °F 41.4 °F 37.4 °F 76% 30.09 in 10.0 mi South 5.8 mph - N/A   Clear
11:15 AM 46.4 °F 43.5 °F 37.4 °F 71% 30.09 in 9.0 mi South 5.8 mph - N/A   Clear
11:35 AM 48.2 °F - 39.2 °F 71% 30.09 in 10.0 mi South 5.8 mph - N/A   Clear
11:55 AM 50.0 °F - 37.4 °F 62% 30.09 in 10.0 mi SW 4.6 mph - N/A   Clear
12:15 PM 51.8 °F - 37.4 °F 58% 30.08 in 10.0 mi South 9.2 mph - N/A   Clear
12:35 PM 51.8 °F - 37.4 °F 58% 30.08 in 10.0 mi SW 9.2 mph - N/A   Clear
12:55 PM 51.8 °F - 35.6 °F 54% 30.07 in 10.0 mi SW 10.4 mph - N/A   Clear
1:15 PM 53.6 °F - 35.6 °F 51% 30.06 in 10.0 mi South 4.6 mph - N/A   Clear
1:35 PM 53.6 °F - 35.6 °F 51% 30.06 in 10.0 mi SW 9.2 mph - N/A   Clear
1:55 PM 53.6 °F - 37.4 °F 54% 30.05 in 10.0 mi SW 8.1 mph - N/A   Clear
2:15 PM 53.6 °F - 35.6 °F 51% 30.05 in 10.0 mi WSW 4.6 mph - N/A   Clear
2:35 PM 55.4 °F - 33.8 °F 44% 30.04 in 10.0 mi WSW 8.1 mph - N/A   Clear
2:55 PM 55.4 °F - 33.8 °F 44% 30.04 in 10.0 mi West 3.5 mph - N/A   Clear
3:15 PM 55.4 °F - 33.8 °F 44% 30.04 in 10.0 mi WSW 8.1 mph - N/A   Clear
3:35 PM 55.4 °F - 35.6 °F 47% 30.03 in 10.0 mi SSW 6.9 mph - N/A   Clear
3:55 PM 55.4 °F - 35.6 °F 47% 30.03 in 10.0 mi WSW 6.9 mph - N/A   Clear
4:15 PM 55.4 °F - 33.8 °F 44% 30.03 in 10.0 mi SSW 8.1 mph - N/A   Clear
4:35 PM 55.4 °F - 33.8 °F 44% 30.03 in 10.0 mi SW 5.8 mph - N/A   Clear
4:55 PM 55.4 °F - 33.8 °F 44% 30.02 in 10.0 mi SW 5.8 mph - N/A   Clear
5:15 PM 53.6 °F - 35.6 °F 51% 30.02 in 10.0 mi SW 6.9 mph - N/A   Clear
5:35 PM 53.6 °F - 35.6 °F 51% 30.03 in 10.0 mi SW 6.9 mph - N/A   Clear
5:55 PM 53.6 °F - 33.8 °F 47% 30.03 in 10.0 mi SW 6.9 mph - N/A   Clear
6:15 PM 53.6 °F - 33.8 °F 47% 30.03 in 10.0 mi SSW 5.8 mph - N/A   Clear
6:35 PM 51.8 °F - 33.8 °F 50% 30.03 in 10.0 mi SSW 4.6 mph - N/A   Clear
6:55 PM 50.0 °F - 33.8 °F 54% 30.03 in 10.0 mi SSW 4.6 mph - N/A   Clear
7:15 PM 50.0 °F - 33.8 °F 54% 30.03 in 10.0 mi South 4.6 mph - N/A   Clear
7:35 PM 48.2 °F - 33.8 °F 58% 30.03 in 10.0 mi South 5.8 mph - N/A   Clear
7:55 PM 48.2 °F - 33.8 °F 58% 30.03 in 10.0 mi South 5.8 mph - N/A   Clear
8:15 PM 46.4 °F 42.9 °F 33.8 °F 62% 30.03 in 10.0 mi South 6.9 mph - N/A   Clear
8:35 PM 48.2 °F - 33.8 °F 58% 30.03 in 10.0 mi South 6.9 mph - N/A   Clear
8:55 PM 48.2 °F - 33.8 °F 58% 30.03 in 10.0 mi South 6.9 mph - N/A   Clear
9:15 PM 46.4 °F 42.4 °F 33.8 °F 62% 30.03 in 10.0 mi South 8.1 mph - N/A   Partly Cloudy
9:35 PM 48.2 °F - 35.6 °F 62% 30.03 in 10.0 mi South 6.9 mph - N/A   Mostly Cloudy
9:55 PM 46.4 °F 42.9 °F 35.6 °F 66% 30.04 in 10.0 mi South 6.9 mph - N/A   Scattered Clouds
10:15 PM 46.4 °F 42.9 °F 35.6 °F 66% 30.04 in 10.0 mi South 6.9 mph - N/A   Partly Cloudy
10:35 PM 46.4 °F 42.9 °F 35.6 °F 66% 30.03 in 10.0 mi South 6.9 mph - N/A   Clear
10:55 PM 46.4 °F 42.4 °F 35.6 °F 66% 30.03 in 10.0 mi South 8.1 mph - N/A   Clear
11:35 PM 46.4 °F 42.4 °F 35.6 °F 66% 30.03 in 10.0 mi South 8.1 mph - N/A   Overcast
11:55 PM 46.4 °F 42.9 °F 35.6 °F 66% 30.03 in 10.0 mi South 6.9 mph - N/A   Overcast